date,City,No. Stations,Air Quality,Index Value,Prominent Pollutant
2019-01-29,Ballabgarh,1.0,Poor,217,PM2.5
2019-01-30,Ballabgarh,1.0,Poor,255,PM2.5
2019-01-31,Ballabgarh,1.0,Moderate,172,PM2.5
2019-02-01,Ballabgarh,1.0,Moderate,116,PM2.5
2019-02-02,Ballabgarh,1.0,Poor,211,PM2.5
2019-02-03,Ballabgarh,1.0,Poor,231,PM2.5
2019-02-05,Ballabgarh,1.0,Poor,293,PM2.5
2019-02-07,Ballabgarh,1.0,Satisfactory,72,PM10
2019-02-08,Ballabgarh,1.0,Moderate,113,CO
2019-02-10,Ballabgarh,1.0,Poor,244,PM2.5
2019-02-11,Ballabgarh,1.0,Poor,225,PM2.5
2019-02-12,Ballabgarh,1.0,Poor,267,PM2.5
2019-02-13,Ballabgarh,1.0,Poor,300,PM2.5
2019-02-14,Ballabgarh,1.0,Poor,212,PM2.5
2019-02-15,Ballabgarh,1.0,Moderate,108,PM2.5
2019-02-16,Ballabgarh,1.0,Moderate,126,PM10
2019-02-17,Ballabgarh,1.0,Moderate,122,PM10
2019-02-18,Ballabgarh,1.0,Moderate,140,PM10
2019-02-19,Ballabgarh,1.0,Satisfactory,88,PM10
2019-02-20,Ballabgarh,1.0,Moderate,126,PM10
2019-02-21,Ballabgarh,1.0,Satisfactory,78,PM10
2019-02-22,Ballabgarh,1.0,Moderate,136,PM10
2019-02-23,Ballabgarh,1.0,Moderate,133,PM10
2019-02-24,Ballabgarh,1.0,Poor,289,PM2.5
2019-02-25,Ballabgarh,1.0,Poor,253,PM2.5
2019-02-26,Ballabgarh,1.0,Moderate,115,PM10
2019-02-27,Ballabgarh,1.0,Satisfactory,86,PM10
2019-02-28,Ballabgarh,1.0,Poor,236,PM10
2019-03-01,Ballabgarh,1.0,Poor,250,PM2.5
2019-03-02,Ballabgarh,1.0,Poor,228,PM10
2019-03-03,Ballabgarh,1.0,Satisfactory,86,PM10
2019-03-04,Ballabgarh,1.0,Moderate,183,PM2.5
2019-03-05,Ballabgarh,1.0,Moderate,173,PM10
2019-03-06,Ballabgarh,1.0,Very Poor,328,PM10
2019-03-07,Ballabgarh,1.0,Very Poor,315,PM10
2019-03-08,Ballabgarh,1.0,Poor,299,PM10
2019-03-09,Ballabgarh,1.0,Moderate,188,PM10
2019-03-10,Ballabgarh,1.0,Poor,256,PM2.5
2019-03-11,Ballabgarh,1.0,Moderate,168,PM10
2019-03-12,Ballabgarh,1.0,Moderate,160,PM10
2019-03-13,Ballabgarh,1.0,Poor,228,PM2.5
2019-03-14,Ballabgarh,1.0,Very Poor,376,PM10
2019-03-19,Ballabgarh,1.0,Poor,273,PM2.5
2019-03-20,Ballabgarh,1.0,Moderate,196,PM2.5
2019-03-21,Ballabgarh,1.0,Moderate,149,PM2.5
2019-03-22,Ballabgarh,1.0,Moderate,161,PM10
2019-03-24,Ballabgarh,1.0,Poor,210,PM10
2019-03-25,Ballabgarh,1.0,Moderate,162,PM10
2019-03-26,Ballabgarh,1.0,Poor,212,PM2.5
2019-03-27,Ballabgarh,1.0,Poor,277,PM2.5
2019-03-28,Ballabgarh,1.0,Poor,272,PM2.5
2019-03-29,Ballabgarh,1.0,Poor,296,PM10
2019-03-30,Ballabgarh,1.0,Poor,284,PM2.5
2019-03-31,Ballabgarh,1.0,Poor,217,PM10
2019-04-01,Ballabgarh,1.0,Poor,210,PM10
2019-04-02,Ballabgarh,1.0,Poor,224,PM10
2019-04-03,Ballabgarh,1.0,Poor,241,PM2.5
2019-04-04,Ballabgarh,1.0,Poor,227,PM10
2019-04-05,Ballabgarh,1.0,Poor,293,PM10
2019-04-06,Ballabgarh,1.0,Poor,287,PM2.5
2019-04-07,Ballabgarh,1.0,Very Poor,348,PM2.5
2019-04-08,Ballabgarh,1.0,Poor,291,PM2.5
2019-04-09,Ballabgarh,1.0,Moderate,194,PM2.5
2019-04-10,Ballabgarh,1.0,Poor,260,PM2.5
2019-04-11,Ballabgarh,1.0,Poor,250,PM10
2019-04-12,Ballabgarh,1.0,Poor,268,PM10
2019-04-13,Ballabgarh,1.0,Poor,258,PM10
2019-04-14,Ballabgarh,1.0,Moderate,172,PM10
2019-04-15,Ballabgarh,1.0,Poor,222,PM10
2019-04-16,Ballabgarh,1.0,Poor,271,PM10
2019-04-18,Ballabgarh,1.0,Satisfactory,73,PM10
2019-04-19,Ballabgarh,1.0,Poor,236,PM2.5
2019-04-20,Ballabgarh,1.0,Poor,243,PM10
2019-04-21,Ballabgarh,1.0,Poor,243,PM10
2019-04-22,Ballabgarh,1.0,Poor,282,PM10
2019-04-23,Ballabgarh,1.0,Very Poor,329,PM2.5
2019-04-25,Ballabgarh,1.0,Poor,266,PM10
2019-04-26,Ballabgarh,1.0,Poor,221,PM2.5
2019-04-27,Ballabgarh,1.0,Very Poor,334,PM10
2019-04-28,Ballabgarh,1.0,Very Poor,352,PM10
2019-04-29,Ballabgarh,1.0,Poor,282,PM2.5
2019-04-30,Ballabgarh,1.0,Poor,293,PM10
2019-05-01,Ballabgarh,1.0,Very Poor,328,PM10
2019-05-02,Ballabgarh,1.0,Poor,260,PM10
2019-05-04,Ballabgarh,1.0,Poor,240,PM2.5
2019-05-05,Ballabgarh,1.0,Poor,295,PM10
2019-05-06,Ballabgarh,1.0,Very Poor,302,PM10
2019-05-07,Ballabgarh,1.0,Severe,414,PM10
2019-05-08,Ballabgarh,1.0,Severe,426,PM10
2019-05-09,Ballabgarh,1.0,Severe,417,PM10
2019-05-10,Ballabgarh,1.0,Very Poor,317,PM2.5
2019-05-11,Ballabgarh,1.0,Very Poor,327,PM2.5
2019-05-12,Ballabgarh,1.0,Very Poor,371,PM10
2019-05-13,Ballabgarh,1.0,Very Poor,308,PM2.5
2019-05-14,Ballabgarh,1.0,Moderate,185,PM2.5
2019-05-16,Ballabgarh,1.0,Moderate,196,PM2.5
2019-05-17,Ballabgarh,1.0,Poor,252,PM2.5
2019-05-18,Ballabgarh,1.0,Satisfactory,99,PM10
2019-05-19,Ballabgarh,1.0,Moderate,157,PM10
2019-05-20,Ballabgarh,1.0,Poor,227,PM10
2019-05-21,Ballabgarh,1.0,Poor,260,PM10
2019-05-23,Ballabgarh,1.0,Poor,251,PM10
2019-05-24,Ballabgarh,1.0,Moderate,200,PM10
2019-05-25,Ballabgarh,1.0,Moderate,159,PM10
2019-05-26,Ballabgarh,1.0,Moderate,171,PM10
2019-05-27,Ballabgarh,1.0,Moderate,192,PM2.5
2019-05-28,Ballabgarh,1.0,Poor,202,PM10
2019-05-29,Ballabgarh,1.0,Poor,257,PM10
2019-05-30,Ballabgarh,1.0,Very Poor,301,PM10
2019-05-31,Ballabgarh,1.0,Very Poor,338,PM10
2019-06-01,Ballabgarh,1.0,Poor,260,PM10
2019-06-02,Ballabgarh,1.0,Poor,202,PM2.5
2019-06-03,Ballabgarh,1.0,Poor,259,PM10
2019-06-04,Ballabgarh,1.0,Moderate,159,PM10
2019-06-05,Ballabgarh,1.0,Moderate,165,PM10
2019-06-06,Ballabgarh,1.0,Poor,244,PM10
2019-06-07,Ballabgarh,1.0,Moderate,196,PM10
2019-06-08,Ballabgarh,1.0,Poor,210,PM10
2019-06-09,Ballabgarh,1.0,Poor,293,PM10
2019-06-10,Ballabgarh,1.0,Poor,280,PM10
2019-06-12,Ballabgarh,1.0,Poor,285,PM10
2019-06-13,Ballabgarh,1.0,Poor,204,PM10
2019-06-14,Ballabgarh,1.0,Moderate,184,PM10
2019-06-15,Ballabgarh,1.0,Very Poor,322,PM10
2019-06-16,Ballabgarh,1.0,Poor,257,PM10
2019-06-17,Ballabgarh,1.0,Moderate,144,PM10
2019-06-18,Ballabgarh,1.0,Moderate,140,PM10
2019-06-19,Ballabgarh,1.0,Poor,212,PM10
2019-06-20,Ballabgarh,1.0,Moderate,142,PM2.5
2019-06-21,Ballabgarh,1.0,Poor,214,PM2.5
2019-06-22,Ballabgarh,1.0,Poor,254,PM2.5
2019-06-23,Ballabgarh,1.0,Moderate,124,PM10
2019-06-24,Ballabgarh,1.0,Satisfactory,92,PM10
2019-06-25,Ballabgarh,1.0,Satisfactory,95,PM10
2019-06-26,Ballabgarh,1.0,Poor,253,PM2.5
2019-06-27,Ballabgarh,1.0,Very Poor,302,PM2.5
2019-06-28,Ballabgarh,1.0,Poor,296,PM2.5
2019-06-29,Ballabgarh,1.0,Very Poor,311,PM10
2019-06-30,Ballabgarh,1.0,Very Poor,319,PM10
2019-07-01,Ballabgarh,1.0,Severe,430,PM10
2019-07-02,Ballabgarh,1.0,Poor,254,PM10
2019-07-03,Ballabgarh,1.0,Poor,202,PM2.5
2019-07-04,Ballabgarh,1.0,Moderate,193,PM10
2019-07-05,Ballabgarh,1.0,Poor,273,PM2.5
2019-07-06,Ballabgarh,1.0,Poor,223,PM2.5
2019-07-07,Ballabgarh,1.0,Moderate,116,PM10
2019-07-08,Ballabgarh,1.0,Poor,251,PM2.5
2019-07-09,Ballabgarh,1.0,Poor,233,PM10
2019-07-10,Ballabgarh,1.0,Poor,279,PM10
2019-07-11,Ballabgarh,1.0,Very Poor,392,PM10
2019-07-13,Ballabgarh,1.0,Very Poor,353,PM10
2019-07-14,Ballabgarh,1.0,Poor,279,PM10
2019-07-15,Ballabgarh,1.0,Moderate,196,PM10
2019-07-17,Ballabgarh,1.0,Moderate,122,PM10
2019-07-18,Ballabgarh,1.0,Moderate,165,PM10
2019-07-19,Ballabgarh,1.0,Moderate,109,PM10
2019-07-20,Ballabgarh,1.0,Moderate,106,PM10
2019-07-21,Ballabgarh,1.0,Moderate,103,CO
2019-07-22,Ballabgarh,1.0,Moderate,105,CO
2019-07-23,Ballabgarh,1.0,Moderate,108,CO
2019-07-24,Ballabgarh,1.0,Moderate,126,PM10
2019-07-25,Ballabgarh,1.0,Satisfactory,99,CO
2019-07-26,Ballabgarh,1.0,Satisfactory,94,OZONE
2019-07-27,Ballabgarh,1.0,Moderate,124,OZONE
2019-07-28,Ballabgarh,1.0,Satisfactory,56,OZONE
2019-07-29,Ballabgarh,1.0,Good,49,CO
2019-07-30,Ballabgarh,1.0,Satisfactory,57,PM10
2019-07-31,Ballabgarh,1.0,Satisfactory,62,PM10
2019-08-01,Ballabgarh,1.0,Satisfactory,63,PM10
2019-08-02,Ballabgarh,1.0,Satisfactory,65,CO
2019-08-03,Ballabgarh,1.0,Satisfactory,74,OZONE
2019-08-04,Ballabgarh,1.0,Satisfactory,70,OZONE
2019-08-05,Ballabgarh,1.0,Satisfactory,74,CO
2019-08-06,Ballabgarh,1.0,Satisfactory,82,CO
2019-08-07,Ballabgarh,1.0,Satisfactory,82,PM10
2019-08-08,Ballabgarh,1.0,Satisfactory,63,CO
2019-08-09,Ballabgarh,1.0,Satisfactory,55,PM10
2019-08-10,Ballabgarh,1.0,Good,48,CO
2019-08-11,Ballabgarh,1.0,Satisfactory,57,CO
2019-08-12,Ballabgarh,1.0,Satisfactory,61,CO
2019-08-13,Ballabgarh,1.0,Satisfactory,96,PM10
2019-08-14,Ballabgarh,1.0,Satisfactory,62,CO
2019-08-15,Ballabgarh,1.0,Moderate,132,PM10
2019-08-16,Ballabgarh,1.0,Good,44,CO
2019-08-17,Ballabgarh,1.0,Good,46,CO
2019-08-18,Ballabgarh,1.0,Satisfactory,51,CO
2019-08-19,Ballabgarh,1.0,Satisfactory,76,PM10
2019-08-20,Ballabgarh,1.0,Satisfactory,99,PM10
2019-08-21,Ballabgarh,1.0,Moderate,152,PM10
2019-08-22,Ballabgarh,1.0,Moderate,146,PM10
2019-08-23,Ballabgarh,1.0,Moderate,106,PM10
2019-08-24,Ballabgarh,1.0,Moderate,140,PM10
2019-08-25,Ballabgarh,1.0,Satisfactory,67,CO
2019-08-26,Ballabgarh,1.0,Satisfactory,57,CO
2019-08-27,Ballabgarh,1.0,Satisfactory,73,CO
2019-08-28,Ballabgarh,1.0,Satisfactory,84,CO
2019-08-29,Ballabgarh,1.0,Satisfactory,88,CO
2019-08-30,Ballabgarh,1.0,Moderate,103,CO
2019-08-31,Ballabgarh,1.0,Satisfactory,95,CO
2019-09-01,Ballabgarh,1.0,Satisfactory,90,CO
2019-09-02,Ballabgarh,1.0,Satisfactory,87,CO
2019-09-04,Ballabgarh,1.0,Moderate,109,PM10
2019-09-05,Ballabgarh,1.0,Moderate,152,CO
2019-09-06,Ballabgarh,1.0,Moderate,182,CO
2019-09-07,Ballabgarh,1.0,Moderate,111,CO
2019-09-09,Ballabgarh,1.0,Satisfactory,85,PM10
2019-09-10,Ballabgarh,1.0,Moderate,128,PM10
2019-09-11,Ballabgarh,1.0,Moderate,106,PM10
2019-09-12,Ballabgarh,1.0,Satisfactory,91,PM10
2019-09-13,Ballabgarh,1.0,Satisfactory,57,PM10
2019-09-14,Ballabgarh,1.0,Satisfactory,57,OZONE
2019-09-15,Ballabgarh,1.0,Good,42,CO
2019-09-16,Ballabgarh,1.0,Satisfactory,69,PM10
2019-09-17,Ballabgarh,1.0,Moderate,115,PM10
2019-09-18,Ballabgarh,1.0,Moderate,119,NO2
2019-09-19,Ballabgarh,1.0,Moderate,124,NO2
2019-09-20,Ballabgarh,1.0,Satisfactory,60,PM10
2019-09-21,Ballabgarh,1.0,Satisfactory,74,PM10
2019-09-22,Ballabgarh,1.0,Satisfactory,67,NH3
2019-09-23,Ballabgarh,1.0,Satisfactory,56,NH3
2019-09-24,Ballabgarh,1.0,Satisfactory,59,PM10
2019-09-25,Ballabgarh,1.0,Satisfactory,51,PM10
2019-09-26,Ballabgarh,1.0,Good,45,PM10
2019-09-27,Ballabgarh,1.0,Satisfactory,51,PM10
2019-09-28,Ballabgarh,1.0,Good,49,PM10
2019-09-29,Ballabgarh,1.0,Good,41,PM10
2019-09-30,Ballabgarh,1.0,Good,35,PM10
2019-10-01,Ballabgarh,1.0,Satisfactory,58,PM10
2019-10-02,Ballabgarh,1.0,Good,44,PM10
2019-10-03,Ballabgarh,1.0,Moderate,103,PM10
2019-10-04,Ballabgarh,1.0,Moderate,119,NO2
2019-10-05,Ballabgarh,1.0,Moderate,143,PM10
2019-10-06,Ballabgarh,1.0,Moderate,140,PM10
2019-10-07,Ballabgarh,1.0,Moderate,145,PM10
2019-10-08,Ballabgarh,1.0,Moderate,147,PM10
2019-10-09,Ballabgarh,1.0,Moderate,129,PM10
2019-10-11,Ballabgarh,1.0,Moderate,181,PM2.5
2019-10-12,Ballabgarh,1.0,Moderate,168,PM10
2019-10-13,Ballabgarh,1.0,Moderate,189,PM10
2019-10-14,Ballabgarh,1.0,Moderate,182,PM10
2019-10-15,Ballabgarh,1.0,Moderate,182,PM10
2019-10-16,Ballabgarh,1.0,Moderate,143,PM10
2019-10-17,Ballabgarh,1.0,Moderate,124,PM10
2019-10-18,Ballabgarh,1.0,Poor,250,PM2.5
2019-10-19,Ballabgarh,1.0,Moderate,198,PM2.5
2019-10-20,Ballabgarh,1.0,Poor,271,PM2.5
2019-10-21,Ballabgarh,1.0,Poor,223,PM10
2019-10-22,Ballabgarh,1.0,Poor,219,PM2.5
2019-10-23,Ballabgarh,1.0,Very Poor,340,PM2.5
2019-10-24,Ballabgarh,1.0,Very Poor,305,PM2.5
2019-10-25,Ballabgarh,1.0,Moderate,194,PM2.5
2019-10-26,Ballabgarh,1.0,Poor,214,PM2.5
2019-10-27,Ballabgarh,1.0,Poor,219,PM2.5
2019-10-28,Ballabgarh,1.0,Poor,240,PM2.5
2019-10-29,Ballabgarh,1.0,Very Poor,309,PM2.5
2019-10-30,Ballabgarh,1.0,Severe,467,PM10
2019-10-31,Ballabgarh,1.0,Severe,414,PM10
2019-11-01,Ballabgarh,1.0,Severe,438,PM10
2019-11-02,Ballabgarh,1.0,Very Poor,395,PM10
2019-11-03,Ballabgarh,1.0,Severe,416,PM2.5
2019-11-04,Ballabgarh,1.0,Very Poor,366,PM2.5
2019-11-05,Ballabgarh,1.0,Very Poor,314,PM2.5
2019-11-06,Ballabgarh,1.0,Poor,287,PM2.5
2019-11-07,Ballabgarh,1.0,Moderate,170,PM10
2019-11-08,Ballabgarh,1.0,Poor,214,PM2.5
2019-11-09,Ballabgarh,1.0,Moderate,176,PM10
2019-11-10,Ballabgarh,1.0,Moderate,184,PM10
2019-11-11,Ballabgarh,1.0,Poor,231,PM10
2019-11-12,Ballabgarh,1.0,Very Poor,316,PM2.5
2019-11-13,Ballabgarh,1.0,Very Poor,327,PM10
2019-11-14,Ballabgarh,1.0,Very Poor,332,PM10
2019-11-15,Ballabgarh,1.0,Very Poor,369,PM2.5
2019-11-16,Ballabgarh,1.0,Very Poor,319,PM2.5
2019-11-17,Ballabgarh,1.0,Moderate,198,PM10
2019-11-18,Ballabgarh,1.0,Moderate,169,PM10
2019-11-19,Ballabgarh,1.0,Poor,228,PM10
2019-11-20,Ballabgarh,1.0,Poor,205,PM10
2019-11-21,Ballabgarh,1.0,Poor,218,PM2.5
2019-11-22,Ballabgarh,1.0,Very Poor,317,PM10
2019-11-23,Ballabgarh,1.0,Poor,281,PM2.5
2019-11-24,Ballabgarh,1.0,Poor,231,PM2.5
2019-11-25,Ballabgarh,1.0,Moderate,166,PM2.5
2019-11-26,Ballabgarh,1.0,Poor,228,PM2.5
2019-11-27,Ballabgarh,1.0,Moderate,133,PM10
2019-11-28,Ballabgarh,1.0,Moderate,140,PM10
2019-11-29,Ballabgarh,1.0,Moderate,103,PM10
2019-11-30,Ballabgarh,1.0,Moderate,179,PM10
2019-12-01,Ballabgarh,1.0,Moderate,196,PM2.5
2019-12-02,Ballabgarh,1.0,Moderate,194,PM10
2019-12-03,Ballabgarh,1.0,Poor,247,PM10
2019-12-04,Ballabgarh,1.0,Very Poor,302,PM10
2019-12-05,Ballabgarh,1.0,Very Poor,372,PM2.5
2019-12-06,Ballabgarh,1.0,Very Poor,396,PM10
2019-12-07,Ballabgarh,1.0,Very Poor,331,PM10
2019-12-08,Ballabgarh,1.0,Very Poor,371,PM10
2019-12-09,Ballabgarh,1.0,Very Poor,376,PM10
2019-12-10,Ballabgarh,1.0,Very Poor,356,PM2.5
2019-12-11,Ballabgarh,1.0,Very Poor,349,PM10
2019-12-12,Ballabgarh,1.0,Poor,294,PM10
2019-12-14,Ballabgarh,1.0,Moderate,130,PM2.5
2019-12-15,Ballabgarh,1.0,Poor,252,PM2.5
2019-12-16,Ballabgarh,1.0,Poor,218,PM2.5
2019-12-17,Ballabgarh,1.0,Moderate,173,PM2.5
2019-12-18,Ballabgarh,1.0,Poor,268,PM2.5
2019-12-19,Ballabgarh,1.0,Very Poor,302,PM2.5
2019-12-20,Ballabgarh,1.0,Very Poor,400,PM10
2019-12-21,Ballabgarh,1.0,Severe,443,PM10
2019-12-22,Ballabgarh,1.0,Poor,291,PM2.5
2019-12-23,Ballabgarh,1.0,Poor,207,PM2.5
2019-12-24,Ballabgarh,1.0,Very Poor,338,PM2.5
2019-12-25,Ballabgarh,1.0,Severe,403,PM2.5
2019-12-26,Ballabgarh,1.0,Very Poor,340,PM2.5
2019-12-27,Ballabgarh,1.0,Very Poor,351,PM2.5
2019-12-28,Ballabgarh,1.0,Very Poor,387,PM10
2019-12-29,Ballabgarh,1.0,Very Poor,399,PM10
2019-12-30,Ballabgarh,1.0,Severe,407,PM2.5
2019-12-31,Ballabgarh,1.0,Poor,246,PM10
2020-01-01,Ballabgarh,1.0,Very Poor,397,PM2.5
2020-01-02,Ballabgarh,1.0,Very Poor,384,PM2.5
2020-01-03,Ballabgarh,1.0,Very Poor,306,PM2.5
2020-01-04,Ballabgarh,1.0,Very Poor,330,PM10
2020-01-06,Ballabgarh,1.0,Very Poor,349,PM2.5
2020-01-07,Ballabgarh,1.0,Poor,208,PM2.5
2020-01-08,Ballabgarh,1.0,Very Poor,311,PM2.5
2020-01-09,Ballabgarh,1.0,Poor,229,PM2.5
2020-01-10,Ballabgarh,1.0,Poor,261,PM2.5
2020-01-11,Ballabgarh,1.0,Very Poor,321,PM2.5
2020-01-12,Ballabgarh,1.0,Severe,421,PM2.5
2020-01-13,Ballabgarh,1.0,Very Poor,364,PM2.5
2020-01-14,Ballabgarh,1.0,Poor,269,PM2.5
2020-01-15,Ballabgarh,1.0,Poor,241,PM2.5
2020-01-16,Ballabgarh,1.0,Poor,271,PM2.5
2020-01-17,Ballabgarh,1.0,Moderate,175,PM2.5
2020-01-18,Ballabgarh,1.0,Poor,287,PM2.5
2020-01-22,Ballabgarh,1.0,Very Poor,354,PM2.5
2020-01-23,Ballabgarh,1.0,Very Poor,324,PM2.5
2020-01-24,Ballabgarh,1.0,Poor,249,PM2.5
2020-01-25,Ballabgarh,1.0,Very Poor,330,PM2.5
2020-01-26,Ballabgarh,1.0,Poor,273,PM2.5
2020-01-27,Ballabgarh,1.0,Poor,268,PM2.5
2020-01-28,Ballabgarh,1.0,Moderate,112,PM10
2020-01-29,Ballabgarh,1.0,Moderate,136,PM10
2020-01-30,Ballabgarh,1.0,Poor,292,PM2.5
2020-01-31,Ballabgarh,1.0,Poor,288,PM2.5
2020-02-01,Ballabgarh,1.0,Poor,236,PM2.5
2020-02-02,Ballabgarh,1.0,Poor,235,PM2.5
2020-02-03,Ballabgarh,1.0,Poor,273,PM2.5
2020-02-04,Ballabgarh,1.0,Poor,257,PM2.5
2020-02-05,Ballabgarh,1.0,Very Poor,327,PM10
2020-02-06,Ballabgarh,1.0,Moderate,200,PM10
2020-02-07,Ballabgarh,1.0,Poor,252,PM10
2020-02-08,Ballabgarh,1.0,Poor,295,PM10
2020-02-09,Ballabgarh,1.0,Poor,271,PM10
2020-02-10,Ballabgarh,1.0,Poor,259,PM10
2020-02-11,Ballabgarh,1.0,Very Poor,396,PM2.5
2020-02-12,Ballabgarh,1.0,Very Poor,362,PM10
2020-02-13,Ballabgarh,1.0,Poor,250,PM10
2020-02-14,Ballabgarh,1.0,Poor,234,PM10
2020-02-15,Ballabgarh,1.0,Moderate,193,PM10
2020-02-16,Ballabgarh,1.0,Poor,270,PM10
2020-02-17,Ballabgarh,1.0,Poor,288,PM10
2020-02-18,Ballabgarh,1.0,Poor,223,PM10
2020-02-20,Ballabgarh,1.0,Moderate,150,PM10
2020-02-25,Ballabgarh,1.0,Moderate,135,PM10
2020-02-26,Ballabgarh,1.0,Moderate,153,PM10
2020-02-27,Ballabgarh,1.0,Satisfactory,97,PM10
2020-02-28,Ballabgarh,1.0,Satisfactory,90,PM10
2020-02-29,Ballabgarh,1.0,Satisfactory,79,PM10
2020-03-02,Ballabgarh,1.0,Poor,210,PM2.5
2020-03-03,Ballabgarh,1.0,Poor,255,PM2.5
2020-03-04,Ballabgarh,1.0,Moderate,126,PM2.5
2020-03-07,Ballabgarh,1.0,Good,33,PM10
2020-03-08,Ballabgarh,1.0,Satisfactory,83,PM10
2020-03-09,Ballabgarh,1.0,Moderate,140,PM10
2020-03-10,Ballabgarh,1.0,Moderate,121,PM10
2020-03-11,Ballabgarh,1.0,Satisfactory,72,PM10
2020-03-12,Ballabgarh,1.0,Satisfactory,86,PM10
2020-03-13,Ballabgarh,1.0,Moderate,138,PM2.5
2020-03-14,Ballabgarh,1.0,Satisfactory,64,PM2.5
2020-03-15,Ballabgarh,1.0,Satisfactory,90,PM10
2020-03-16,Ballabgarh,1.0,Moderate,107,PM10
2020-03-17,Ballabgarh,1.0,Moderate,146,PM10
2020-03-18,Ballabgarh,1.0,Moderate,149,PM10
2020-03-19,Ballabgarh,1.0,Moderate,149,PM10
2020-03-20,Ballabgarh,1.0,Satisfactory,93,PM10
2020-03-21,Ballabgarh,1.0,Satisfactory,56,PM10
2020-03-22,Ballabgarh,1.0,Good,47,PM2.5
2020-03-24,Ballabgarh,1.0,Satisfactory,58,PM10
2020-03-25,Ballabgarh,1.0,Satisfactory,51,PM10
2020-04-02,Ballabgarh,1.0,Satisfactory,78,PM2.5
2020-04-03,Ballabgarh,1.0,Satisfactory,82,PM2.5
2020-04-04,Ballabgarh,1.0,Satisfactory,71,PM2.5
2020-04-05,Ballabgarh,1.0,Satisfactory,70,PM2.5
2020-04-06,Ballabgarh,1.0,Satisfactory,75,PM2.5
2020-04-07,Ballabgarh,1.0,Satisfactory,63,PM2.5
2020-04-08,Ballabgarh,1.0,Satisfactory,61,PM2.5
2020-04-09,Ballabgarh,1.0,Satisfactory,59,PM10
2020-04-10,Ballabgarh,1.0,Satisfactory,65,PM2.5
2020-04-11,Ballabgarh,1.0,Satisfactory,79,PM2.5
2020-04-12,Ballabgarh,1.0,Satisfactory,67,PM2.5
2020-04-13,Ballabgarh,1.0,Satisfactory,81,PM2.5
2020-04-14,Ballabgarh,1.0,Satisfactory,93,PM2.5
2020-04-16,Ballabgarh,1.0,Moderate,170,PM2.5
2020-04-17,Ballabgarh,1.0,Satisfactory,74,PM10
2020-04-18,Ballabgarh,1.0,Satisfactory,65,PM10
2020-04-19,Ballabgarh,1.0,Satisfactory,69,PM10
2020-04-20,Ballabgarh,1.0,Satisfactory,75,PM2.5
2020-04-21,Ballabgarh,1.0,Satisfactory,74,PM2.5
2020-04-22,Ballabgarh,1.0,Satisfactory,80,PM2.5
2020-04-23,Ballabgarh,1.0,Satisfactory,90,PM2.5
2020-04-25,Ballabgarh,1.0,Satisfactory,83,PM2.5
2020-04-27,Ballabgarh,1.0,Satisfactory,66,PM2.5
2020-04-28,Ballabgarh,1.0,Satisfactory,67,PM2.5
2020-04-30,Ballabgarh,1.0,Moderate,125,PM2.5
2020-05-01,Ballabgarh,1.0,Moderate,193,PM2.5
2020-05-02,Ballabgarh,1.0,Moderate,123,PM2.5
2020-05-03,Ballabgarh,1.0,Satisfactory,94,PM10
2020-05-04,Ballabgarh,1.0,Satisfactory,75,PM10
2020-05-05,Ballabgarh,1.0,Satisfactory,79,PM10
2020-05-06,Ballabgarh,1.0,Satisfactory,76,PM10
2020-05-07,Ballabgarh,1.0,Satisfactory,78,PM10
2020-05-08,Ballabgarh,1.0,Satisfactory,76,PM10
2020-05-09,Ballabgarh,1.0,Satisfactory,85,PM10
2020-05-10,Ballabgarh,1.0,Satisfactory,90,PM10
2020-05-11,Ballabgarh,1.0,Satisfactory,80,PM10
2020-05-12,Ballabgarh,1.0,Satisfactory,80,PM10
2020-05-13,Ballabgarh,1.0,Satisfactory,84,PM10
2020-05-14,Ballabgarh,1.0,Satisfactory,80,PM10
2020-05-15,Ballabgarh,1.0,Satisfactory,87,PM10
2020-05-16,Ballabgarh,1.0,Moderate,135,PM10
2020-05-18,Ballabgarh,1.0,Moderate,110,PM10
2020-05-19,Ballabgarh,1.0,Moderate,117,PM2.5
2020-05-20,Ballabgarh,1.0,Moderate,101,PM10
2020-05-21,Ballabgarh,1.0,Satisfactory,98,PM10
2020-05-22,Ballabgarh,1.0,Moderate,104,PM10
2020-05-23,Ballabgarh,1.0,Moderate,123,PM2.5
2020-05-24,Ballabgarh,1.0,Moderate,123,PM2.5
2020-05-25,Ballabgarh,1.0,Satisfactory,85,PM10
2020-05-26,Ballabgarh,1.0,Satisfactory,90,PM2.5
2020-05-27,Ballabgarh,1.0,Satisfactory,100,PM2.5
2020-05-28,Ballabgarh,1.0,Moderate,127,PM10
2020-05-29,Ballabgarh,1.0,Satisfactory,78,PM10
2020-05-30,Ballabgarh,1.0,Satisfactory,65,PM10
2020-05-31,Ballabgarh,1.0,Satisfactory,61,PM2.5
2020-06-01,Ballabgarh,1.0,Satisfactory,64,CO
2020-06-02,Ballabgarh,1.0,Satisfactory,90,PM10
2020-06-03,Ballabgarh,1.0,Satisfactory,88,PM10
2020-06-04,Ballabgarh,1.0,Moderate,110,PM10
2020-06-05,Ballabgarh,1.0,Satisfactory,79,PM10
2020-06-06,Ballabgarh,1.0,Satisfactory,73,PM10
2020-06-07,Ballabgarh,1.0,Moderate,103,PM10
2020-06-08,Ballabgarh,1.0,Satisfactory,89,PM10
2020-06-09,Ballabgarh,1.0,Moderate,120,PM10
2020-06-10,Ballabgarh,1.0,Moderate,131,PM2.5
2020-06-11,Ballabgarh,1.0,Moderate,103,CO
2020-06-12,Ballabgarh,1.0,Moderate,110,PM10
2020-06-13,Ballabgarh,1.0,Moderate,113,CO
2020-06-14,Ballabgarh,1.0,Moderate,111,CO
2020-06-15,Ballabgarh,1.0,Satisfactory,97,PM2.5
2020-06-16,Ballabgarh,1.0,Moderate,151,PM2.5
2020-06-17,Ballabgarh,1.0,Moderate,117,PM2.5
2020-06-18,Ballabgarh,1.0,Moderate,110,CO
2020-06-19,Ballabgarh,1.0,Moderate,122,CO
2020-06-20,Ballabgarh,1.0,Moderate,112,PM10
2020-06-21,Ballabgarh,1.0,Moderate,112,CO
2020-06-22,Ballabgarh,1.0,Moderate,172,O3
2020-06-23,Ballabgarh,1.0,Moderate,123,CO
2020-06-24,Ballabgarh,1.0,Moderate,154,CO
2020-06-25,Ballabgarh,1.0,Moderate,126,PM2.5
2020-06-26,Ballabgarh,1.0,Poor,240,PM2.5
2020-06-27,Ballabgarh,1.0,Poor,217,PM2.5
2020-06-28,Ballabgarh,1.0,Poor,271,PM2.5
2020-06-29,Ballabgarh,1.0,Poor,265,PM2.5
2020-06-30,Ballabgarh,1.0,Moderate,197,PM2.5
2020-07-01,Ballabgarh,1.0,Moderate,123,PM10
2020-07-02,Ballabgarh,1.0,Moderate,180,O3
2020-07-03,Ballabgarh,1.0,Poor,227,PM2.5
2020-07-04,Ballabgarh,1.0,Moderate,156,O3
2020-07-05,Ballabgarh,1.0,Satisfactory,91,O3
2020-07-06,Ballabgarh,1.0,Moderate,114,PM2.5
2020-07-07,Ballabgarh,1.0,Satisfactory,85,PM2.5
2020-07-09,Ballabgarh,1.0,Moderate,161,PM10
2020-07-10,Ballabgarh,1.0,Moderate,167,PM10
2020-07-11,Ballabgarh,1.0,Moderate,159,PM2.5
2020-07-12,Ballabgarh,1.0,Moderate,154,O3
2020-07-13,Ballabgarh,1.0,Moderate,130,PM10
2020-07-14,Ballabgarh,1.0,Moderate,164,PM10
2020-07-15,Ballabgarh,1.0,Moderate,156,PM2.5
2020-07-16,Ballabgarh,1.0,Moderate,124,PM10
2020-07-17,Ballabgarh,1.0,Moderate,174,O3
2020-07-18,Ballabgarh,1.0,Moderate,135,PM10
2020-07-19,Ballabgarh,1.0,Moderate,128,PM10
2020-07-20,Ballabgarh,1.0,Moderate,129,PM10
2020-07-22,Ballabgarh,1.0,Moderate,116,PM10
2020-07-23,Ballabgarh,1.0,Moderate,146,PM10
2020-07-24,Ballabgarh,1.0,Moderate,145,PM10
2020-07-25,Ballabgarh,1.0,Moderate,122,PM10
2020-07-26,Ballabgarh,1.0,Moderate,124,PM10
2020-07-27,Ballabgarh,1.0,Moderate,147,PM10
2020-07-28,Ballabgarh,1.0,Moderate,150,PM2.5
2020-07-29,Ballabgarh,1.0,Moderate,153,PM10
2020-07-30,Ballabgarh,1.0,Moderate,143,PM2.5
2020-07-31,Ballabgarh,1.0,Moderate,131,PM10
2020-08-01,Ballabgarh,1.0,Moderate,126,PM10
2020-08-02,Ballabgarh,1.0,Moderate,152,PM2.5
2020-08-03,Ballabgarh,1.0,Moderate,140,PM10
2020-08-04,Ballabgarh,1.0,Moderate,128,PM10
2020-08-05,Ballabgarh,1.0,Moderate,131,PM10
2020-08-06,Ballabgarh,1.0,Moderate,126,PM10
2020-08-07,Ballabgarh,1.0,Moderate,112,PM10
2020-08-08,Ballabgarh,1.0,Moderate,126,PM10
2020-08-09,Ballabgarh,1.0,Moderate,132,PM10
2020-08-10,Ballabgarh,1.0,Moderate,131,PM2.5
2020-08-11,Ballabgarh,1.0,Moderate,165,O3
2020-08-12,Ballabgarh,1.0,Moderate,178,PM10
2020-08-13,Ballabgarh,1.0,Moderate,128,PM10
2020-08-14,Ballabgarh,1.0,Moderate,124,PM2.5
2020-08-15,Ballabgarh,1.0,Moderate,170,PM10
2020-08-16,Ballabgarh,1.0,Moderate,172,O3
2020-08-17,Ballabgarh,1.0,Moderate,154,O3
2020-08-18,Ballabgarh,1.0,Moderate,150,PM2.5
2020-08-19,Ballabgarh,1.0,Moderate,140,PM2.5
2020-08-20,Ballabgarh,1.0,Satisfactory,65,CO
2020-08-21,Ballabgarh,1.0,Satisfactory,84,CO
2020-08-22,Ballabgarh,1.0,Satisfactory,63,PM10
2020-08-23,Ballabgarh,1.0,Satisfactory,71,PM10
2020-08-24,Ballabgarh,1.0,Satisfactory,80,CO
2020-08-25,Ballabgarh,1.0,Satisfactory,54,PM10
2020-08-27,Ballabgarh,1.0,Satisfactory,91,PM2.5
2020-08-28,Ballabgarh,1.0,Satisfactory,62,PM10
2020-08-31,Ballabgarh,1.0,Satisfactory,81,PM10
2020-09-01,Ballabgarh,1.0,Satisfactory,69,PM10
2020-09-02,Ballabgarh,1.0,Satisfactory,65,PM2.5
2020-09-03,Ballabgarh,1.0,Satisfactory,60,PM10
2020-09-04,Ballabgarh,1.0,Satisfactory,58,PM2.5
2020-09-06,Ballabgarh,1.0,Satisfactory,97,CO
2020-09-07,Ballabgarh,1.0,Satisfactory,83,PM2.5
2020-09-08,Ballabgarh,1.0,Satisfactory,69,PM10
2020-09-09,Ballabgarh,1.0,Moderate,155,PM2.5
2020-09-10,Ballabgarh,1.0,Poor,213,PM2.5
2020-09-11,Ballabgarh,1.0,Poor,236,PM2.5
2020-09-12,Ballabgarh,1.0,Moderate,163,PM10
2020-09-13,Ballabgarh,1.0,Poor,205,PM2.5
2020-09-14,Ballabgarh,1.0,Moderate,128,PM2.5
2020-09-15,Ballabgarh,1.0,Moderate,116,PM2.5